Year,Month,Day,Hour,Minute,Value (Times are PST for windgust in km/hr)
2011,03,12,00,00,24.20
2011,03,12,00,01,37.00
2011,03,12,00,02,29.00
2011,03,12,00,03,30.60
2011,03,12,00,04,25.70
2011,03,12,00,05,45.10
2011,03,12,00,06,27.40
2011,03,12,00,07,45.10
2011,03,12,00,08,45.10
2011,03,12,00,09,41.80
2011,03,12,00,10,27.40
2011,03,12,00,11,17.70
2011,03,12,00,12,22.50
2011,03,12,00,13,20.90
2011,03,12,00,14,25.70
2011,03,12,00,15,22.50
2011,03,12,00,16,37.00
2011,03,12,00,17,37.00
2011,03,12,00,18,30.60
2011,03,12,00,19,30.60
2011,03,12,00,20,32.20
2011,03,12,00,21,19.30
2011,03,12,00,22,29.00
2011,03,12,00,23,25.70
2011,03,12,00,24,24.20
2011,03,12,00,25,32.20
2011,03,12,00,26,32.20
2011,03,12,00,27,32.20
2011,03,12,00,28,20.90
2011,03,12,00,29,24.20
2011,03,12,00,30,27.40
2011,03,12,00,31,24.20
2011,03,12,00,32,22.50
2011,03,12,00,33,20.90
2011,03,12,00,34,29.00
2011,03,12,00,35,33.80
2011,03,12,00,36,35.40
2011,03,12,00,37,27.40
2011,03,12,00,38,22.50
2011,03,12,00,39,30.60
2011,03,12,00,40,20.90
2011,03,12,00,41,20.90
2011,03,12,00,42,33.80
2011,03,12,00,43,32.20
2011,03,12,00,44,25.70
2011,03,12,00,45,32.20
2011,03,12,00,46,30.60
2011,03,12,00,47,24.20
2011,03,12,00,48,33.80
2011,03,12,00,49,30.60
2011,03,12,00,50,19.30
2011,03,12,00,51,27.40
2011,03,12,00,52,30.60
2011,03,12,00,53,27.40
2011,03,12,00,54,22.50
2011,03,12,00,55,25.70
2011,03,12,00,56,22.50
2011,03,12,00,57,19.30
2011,03,12,00,58,33.80
2011,03,12,00,59,27.40
2011,03,12,01,00,20.90
2011,03,12,01,01,22.50
2011,03,12,01,02,24.20
2011,03,12,01,03,25.70
2011,03,12,01,04,14.50
2011,03,12,01,05,17.70
2011,03,12,01,06,29.00
2011,03,12,01,07,17.70
2011,03,12,01,08,16.10
2011,03,12,01,09,22.50
2011,03,12,01,10,25.70
2011,03,12,01,11,29.00
2011,03,12,01,12,30.60
2011,03,12,01,13,29.00
2011,03,12,01,14,24.20
2011,03,12,01,15,22.50
2011,03,12,01,16,33.80
2011,03,12,01,17,24.20
2011,03,12,01,18,25.70
2011,03,12,01,19,30.60
2011,03,12,01,20,22.50
2011,03,12,01,21,30.60
2011,03,12,01,22,29.00
2011,03,12,01,23,29.00
2011,03,12,01,24,32.20
2011,03,12,01,25,22.50
2011,03,12,01,26,19.30
2011,03,12,01,27,33.80
2011,03,12,01,28,37.00
2011,03,12,01,29,25.70
2011,03,12,01,30,14.50
2011,03,12,01,31,29.00
2011,03,12,01,32,29.00
2011,03,12,01,33,25.70
2011,03,12,01,34,22.50
2011,03,12,01,35,19.30
2011,03,12,01,36,22.50
2011,03,12,01,37,29.00
2011,03,12,01,38,17.70
2011,03,12,01,39,25.70
2011,03,12,01,40,25.70
2011,03,12,01,41,24.20
2011,03,12,01,42,27.40
2011,03,12,01,43,30.60
2011,03,12,01,44,12.90
2011,03,12,01,45,20.90
2011,03,12,01,46,22.50
2011,03,12,01,47,17.70
2011,03,12,01,48,27.40
2011,03,12,01,49,19.30
2011,03,12,01,50,19.30
2011,03,12,01,51,20.90
2011,03,12,01,52,17.70
2011,03,12,01,53,17.70
2011,03,12,01,54,25.70
2011,03,12,01,55,19.30
2011,03,12,01,56,20.90
2011,03,12,01,57,19.30
2011,03,12,01,58,24.20
2011,03,12,01,59,25.70
2011,03,12,02,00,25.70
2011,03,12,02,01,27.40
2011,03,12,02,02,20.90
2011,03,12,02,03,19.30
2011,03,12,02,04,22.50
2011,03,12,02,05,19.30
2011,03,12,02,06,16.10
2011,03,12,02,07,19.30
2011,03,12,02,08,9.60
2011,03,12,02,09,9.60
2011,03,12,02,10,12.90
2011,03,12,02,11,19.30
2011,03,12,02,12,16.10
2011,03,12,02,13,17.70
2011,03,12,02,14,16.10
2011,03,12,02,15,24.20
2011,03,12,02,16,19.30
2011,03,12,02,17,20.90
2011,03,12,02,18,16.10
2011,03,12,02,19,24.20
2011,03,12,02,20,24.20
2011,03,12,02,21,17.70
2011,03,12,02,22,17.70
2011,03,12,02,23,24.20
2011,03,12,02,24,19.30
2011,03,12,02,25,24.20
2011,03,12,02,26,19.30
2011,03,12,02,27,20.90
2011,03,12,02,28,20.90
2011,03,12,02,29,24.20
2011,03,12,02,30,22.50
2011,03,12,02,31,25.70
2011,03,12,02,32,20.90
2011,03,12,02,33,27.40
2011,03,12,02,34,24.20
2011,03,12,02,35,27.40
2011,03,12,02,36,16.10
2011,03,12,02,37,16.10
2011,03,12,02,38,19.30
2011,03,12,02,39,24.20
2011,03,12,02,40,25.70
2011,03,12,02,41,19.30
2011,03,12,02,42,19.30
2011,03,12,02,43,29.00
2011,03,12,02,44,17.70
2011,03,12,02,45,16.10
2011,03,12,02,46,19.30
2011,03,12,02,47,27.40
2011,03,12,02,48,16.10
2011,03,12,02,49,22.50
2011,03,12,02,50,17.70
2011,03,12,02,51,20.90
2011,03,12,02,52,16.10
2011,03,12,02,53,16.10
2011,03,12,02,54,24.20
2011,03,12,02,55,29.00
2011,03,12,02,56,19.30
2011,03,12,02,57,17.70
2011,03,12,02,58,20.90
2011,03,12,02,59,29.00
2011,03,12,03,00,19.30
2011,03,12,03,01,17.70
2011,03,12,03,02,22.50
2011,03,12,03,03,25.70
2011,03,12,03,04,27.40
2011,03,12,03,05,24.20
2011,03,12,03,06,19.30
2011,03,12,03,07,9.60
2011,03,12,03,08,22.50
2011,03,12,03,09,17.70
2011,03,12,03,10,12.90
2011,03,12,03,11,20.90
2011,03,12,03,12,14.50
2011,03,12,03,13,20.90
2011,03,12,03,14,14.50
2011,03,12,03,15,19.30
2011,03,12,03,16,19.30
2011,03,12,03,17,14.50
2011,03,12,03,18,17.70
2011,03,12,03,19,20.90
2011,03,12,03,20,24.20
2011,03,12,03,21,20.90
2011,03,12,03,22,19.30
2011,03,12,03,23,22.50
2011,03,12,03,24,17.70
2011,03,12,03,25,20.90
2011,03,12,03,26,24.20
2011,03,12,03,27,19.30
2011,03,12,03,28,19.30
2011,03,12,03,29,24.20
2011,03,12,03,30,30.60
2011,03,12,03,31,25.70
2011,03,12,03,32,25.70
2011,03,12,03,33,20.90
2011,03,12,03,34,22.50
2011,03,12,03,35,14.50
2011,03,12,03,36,11.30
2011,03,12,03,37,14.50
2011,03,12,03,38,19.30
2011,03,12,03,39,29.00
2011,03,12,03,40,40.20
2011,03,12,03,41,17.70
2011,03,12,03,42,30.60
2011,03,12,03,43,24.20
2011,03,12,03,44,25.70
2011,03,12,03,45,35.40
2011,03,12,03,46,29.00
2011,03,12,03,47,24.20
2011,03,12,03,48,16.10
2011,03,12,03,49,22.50
2011,03,12,03,50,24.20
2011,03,12,03,51,30.60
2011,03,12,03,52,29.00
2011,03,12,03,53,27.40
2011,03,12,03,54,20.90
2011,03,12,03,55,25.70
2011,03,12,03,56,22.50
2011,03,12,03,57,19.30
2011,03,12,03,58,32.20
2011,03,12,03,59,25.70
2011,03,12,04,00,37.00
2011,03,12,04,01,32.20
2011,03,12,04,02,25.70
2011,03,12,04,03,40.20
2011,03,12,04,04,40.20
2011,03,12,04,05,30.60
2011,03,12,04,06,32.20
2011,03,12,04,07,25.70
2011,03,12,04,08,37.00
2011,03,12,04,09,41.80
2011,03,12,04,10,32.20
2011,03,12,04,11,27.40
2011,03,12,04,12,32.20
2011,03,12,04,13,24.20
2011,03,12,04,14,53.10
2011,03,12,04,15,22.50
2011,03,12,04,16,32.20
2011,03,12,04,17,32.20
2011,03,12,04,18,25.70
2011,03,12,04,19,25.70
2011,03,12,04,20,24.20
2011,03,12,04,21,37.00
2011,03,12,04,22,35.40
2011,03,12,04,23,46.70
2011,03,12,04,24,22.50
2011,03,12,04,25,22.50
2011,03,12,04,26,33.80
2011,03,12,04,27,35.40
2011,03,12,04,28,32.20
2011,03,12,04,29,30.60
2011,03,12,04,30,30.60
2011,03,12,04,31,24.20
2011,03,12,04,32,29.00
2011,03,12,04,33,25.70
2011,03,12,04,34,30.60
2011,03,12,04,35,27.40
2011,03,12,04,36,30.60
2011,03,12,04,37,22.50
2011,03,12,04,38,33.80
2011,03,12,04,39,37.00
2011,03,12,04,40,27.40
2011,03,12,04,41,41.80
2011,03,12,04,42,38.60
2011,03,12,04,43,27.40
2011,03,12,04,44,33.80
2011,03,12,04,45,29.00
2011,03,12,04,46,48.30
2011,03,12,04,47,29.00
2011,03,12,04,48,22.50
2011,03,12,04,49,32.20
2011,03,12,04,50,24.20
2011,03,12,04,51,16.10
2011,03,12,04,52,19.30
2011,03,12,04,53,22.50
2011,03,12,04,54,22.50
2011,03,12,04,55,20.90
2011,03,12,04,56,17.70
2011,03,12,04,57,29.00
2011,03,12,04,58,27.40
2011,03,12,04,59,25.70
2011,03,12,05,00,22.50
2011,03,12,05,01,24.20
2011,03,12,05,02,20.90
2011,03,12,05,03,19.30
2011,03,12,05,04,27.40
2011,03,12,05,05,29.00
2011,03,12,05,06,22.50
2011,03,12,05,07,19.30
2011,03,12,05,08,20.90
2011,03,12,05,09,19.30
2011,03,12,05,10,22.50
2011,03,12,05,11,17.70
2011,03,12,05,12,17.70
2011,03,12,05,13,16.10
2011,03,12,05,14,19.30
2011,03,12,05,15,22.50
2011,03,12,05,16,20.90
2011,03,12,05,17,19.30
2011,03,12,05,18,19.30
2011,03,12,05,19,17.70
2011,03,12,05,20,20.90
2011,03,12,05,21,20.90
2011,03,12,05,22,17.70
2011,03,12,05,23,4.80
2011,03,12,05,24,14.50
2011,03,12,05,25,22.50
2011,03,12,05,26,19.30
2011,03,12,05,27,19.30
2011,03,12,05,28,17.70
2011,03,12,05,29,14.50
2011,03,12,05,30,20.90
2011,03,12,05,31,17.70
2011,03,12,05,32,19.30
2011,03,12,05,33,25.70
2011,03,12,05,34,19.30
2011,03,12,05,35,24.20
2011,03,12,05,36,14.50
2011,03,12,05,37,17.70
2011,03,12,05,38,17.70
2011,03,12,05,39,14.50
2011,03,12,05,40,24.20
2011,03,12,05,41,24.20
2011,03,12,05,42,20.90
2011,03,12,05,43,22.50
2011,03,12,05,44,19.30
2011,03,12,05,45,19.30
2011,03,12,05,46,19.30
2011,03,12,05,47,19.30
2011,03,12,05,48,16.10
2011,03,12,05,49,16.10
2011,03,12,05,50,22.50
2011,03,12,05,51,17.70
2011,03,12,05,52,12.90
2011,03,12,05,53,11.30
2011,03,12,05,54,17.70
2011,03,12,05,55,16.10
2011,03,12,05,56,14.50
2011,03,12,05,57,17.70
2011,03,12,05,58,32.20
2011,03,12,05,59,29.00
2011,03,12,06,00,19.30
2011,03,12,06,01,17.70
2011,03,12,06,02,22.50
2011,03,12,06,03,19.30
2011,03,12,06,04,24.20
2011,03,12,06,05,20.90
2011,03,12,06,06,20.90
2011,03,12,06,07,22.50
2011,03,12,06,08,24.20
2011,03,12,06,09,33.80
2011,03,12,06,10,22.50
2011,03,12,06,11,30.60
2011,03,12,06,12,37.00
2011,03,12,06,13,24.20
2011,03,12,06,14,22.50
2011,03,12,06,15,27.40
2011,03,12,06,16,29.00
2011,03,12,06,17,29.00
2011,03,12,06,18,24.20
2011,03,12,06,19,22.50
2011,03,12,06,20,22.50
2011,03,12,06,21,22.50
2011,03,12,06,22,29.00
2011,03,12,06,23,22.50
2011,03,12,06,24,16.10
2011,03,12,06,25,20.90
2011,03,12,06,26,16.10
2011,03,12,06,27,27.40
2011,03,12,06,28,33.80
2011,03,12,06,29,22.50
2011,03,12,06,30,27.40
2011,03,12,06,31,29.00
2011,03,12,06,32,25.70
2011,03,12,06,33,33.80
2011,03,12,06,34,16.10
2011,03,12,06,35,29.00
2011,03,12,06,36,37.00
2011,03,12,06,37,24.20
2011,03,12,06,38,22.50
2011,03,12,06,39,37.00
2011,03,12,06,40,32.20
2011,03,12,06,41,27.40
2011,03,12,06,42,24.20
2011,03,12,06,43,33.80
2011,03,12,06,44,27.40
2011,03,12,06,45,29.00
2011,03,12,06,46,30.60
2011,03,12,06,47,35.40
2011,03,12,06,48,29.00
2011,03,12,06,49,29.00
2011,03,12,06,50,24.20
2011,03,12,06,51,25.70
2011,03,12,06,52,17.70
2011,03,12,06,53,17.70
2011,03,12,06,54,30.60
2011,03,12,06,55,17.70
2011,03,12,06,56,32.20
2011,03,12,06,57,30.60
2011,03,12,06,58,19.30
2011,03,12,06,59,19.30
2011,03,12,07,00,19.30
2011,03,12,07,01,30.60
2011,03,12,07,02,25.70
2011,03,12,07,03,20.90
2011,03,12,07,04,20.90
2011,03,12,07,05,24.20
2011,03,12,07,06,32.20
2011,03,12,07,07,16.10
2011,03,12,07,08,14.50
2011,03,12,07,09,17.70
2011,03,12,07,10,16.10
2011,03,12,07,11,27.40
2011,03,12,07,12,20.90
2011,03,12,07,13,22.50
2011,03,12,07,14,20.90
2011,03,12,07,15,17.70
2011,03,12,07,16,22.50
2011,03,12,07,17,25.70
2011,03,12,07,18,30.60
2011,03,12,07,19,25.70
2011,03,12,07,20,24.20
2011,03,12,07,21,20.90
2011,03,12,07,22,20.90
2011,03,12,07,23,16.10
2011,03,12,07,24,12.90
2011,03,12,07,25,17.70
2011,03,12,07,26,30.60
2011,03,12,07,27,20.90
2011,03,12,07,28,25.70
2011,03,12,07,29,17.70
2011,03,12,07,30,27.40
2011,03,12,07,31,20.90
2011,03,12,07,32,19.30
2011,03,12,07,33,22.50
2011,03,12,07,34,22.50
2011,03,12,07,35,20.90
2011,03,12,07,36,17.70
2011,03,12,07,37,20.90
2011,03,12,07,38,25.70
2011,03,12,07,39,25.70
2011,03,12,07,40,20.90
2011,03,12,07,41,24.20
2011,03,12,07,42,20.90
2011,03,12,07,43,17.70
2011,03,12,07,44,20.90
2011,03,12,07,45,17.70
2011,03,12,07,46,22.50
2011,03,12,07,47,17.70
2011,03,12,07,48,16.10
2011,03,12,07,49,20.90
2011,03,12,07,50,19.30
2011,03,12,07,51,16.10
2011,03,12,07,52,14.50
2011,03,12,07,53,17.70
2011,03,12,07,54,24.20
2011,03,12,07,55,22.50
2011,03,12,07,56,19.30
2011,03,12,07,57,22.50
2011,03,12,07,58,20.90
2011,03,12,07,59,8.10
2011,03,12,08,00,17.70
2011,03,12,08,01,17.70
2011,03,12,08,02,20.90
2011,03,12,08,03,24.20
2011,03,12,08,04,14.50
2011,03,12,08,05,19.30
2011,03,12,08,06,20.90
2011,03,12,08,07,16.10
2011,03,12,08,08,22.50
2011,03,12,08,09,17.70
2011,03,12,08,10,16.10
2011,03,12,08,11,20.90
2011,03,12,08,12,20.90
2011,03,12,08,13,19.30
2011,03,12,08,14,24.20
2011,03,12,08,15,16.10
2011,03,12,08,16,20.90
2011,03,12,08,17,14.50
2011,03,12,08,18,17.70
2011,03,12,08,19,9.60
2011,03,12,08,20,17.70
2011,03,12,08,21,14.50
2011,03,12,08,22,16.10
2011,03,12,08,23,20.90
2011,03,12,08,24,19.30
2011,03,12,08,25,11.30
2011,03,12,08,26,16.10
2011,03,12,08,27,17.70
2011,03,12,08,28,12.90
2011,03,12,08,29,20.90
2011,03,12,08,30,16.10
2011,03,12,08,31,8.10
2011,03,12,08,32,16.10
2011,03,12,08,33,9.60
2011,03,12,08,34,20.90
2011,03,12,08,35,17.70
2011,03,12,08,36,17.70
2011,03,12,08,37,19.30
2011,03,12,08,38,16.10
2011,03,12,08,39,11.30
2011,03,12,08,40,11.30
2011,03,12,08,41,17.70
2011,03,12,08,42,19.30
2011,03,12,08,43,19.30
2011,03,12,08,44,19.30
2011,03,12,08,45,20.90
2011,03,12,08,46,19.30
2011,03,12,08,47,12.90
2011,03,12,08,48,12.90
2011,03,12,08,49,17.70
2011,03,12,08,50,14.50
2011,03,12,08,51,11.30
2011,03,12,08,52,14.50
2011,03,12,08,53,16.10
2011,03,12,08,54,11.30
2011,03,12,08,55,9.60
2011,03,12,08,56,9.60
2011,03,12,08,57,16.10
2011,03,12,08,58,19.30
2011,03,12,08,59,12.90
2011,03,12,09,00,16.10
2011,03,12,09,01,20.90
2011,03,12,09,02,17.70
2011,03,12,09,03,9.60
2011,03,12,09,04,8.10
2011,03,12,09,05,14.50
2011,03,12,09,06,9.60
2011,03,12,09,07,8.10
2011,03,12,09,08,8.10
2011,03,12,09,09,11.30
2011,03,12,09,10,11.30
2011,03,12,09,11,8.10
2011,03,12,09,12,4.80
2011,03,12,09,13,1.60
2011,03,12,09,14,6.40
2011,03,12,09,15,4.80
2011,03,12,09,16,3.20
2011,03,12,09,17,4.80
2011,03,12,09,18,4.80
2011,03,12,09,19,1.60
2011,03,12,09,20,4.80
2011,03,12,09,21,4.80
2011,03,12,09,22,6.40
2011,03,12,09,23,4.80
2011,03,12,09,24,8.10
2011,03,12,09,25,3.20
2011,03,12,09,26,4.80
2011,03,12,09,27,3.20
2011,03,12,09,28,4.80
2011,03,12,09,29,6.40
2011,03,12,09,30,8.10
2011,03,12,09,31,4.80
2011,03,12,09,32,3.20
2011,03,12,09,33,4.80
2011,03,12,09,34,9.60
2011,03,12,09,35,8.10
2011,03,12,09,36,8.10
2011,03,12,09,37,9.60
2011,03,12,09,38,4.80
2011,03,12,09,39,6.40
2011,03,12,09,40,8.10
2011,03,12,09,41,6.40
2011,03,12,09,42,6.40
2011,03,12,09,43,3.20
2011,03,12,09,46,1.60
2011,03,12,09,47,3.20
2011,03,12,09,48,4.80
2011,03,12,09,49,4.80
2011,03,12,09,50,1.60
2011,03,12,09,51,4.80
2011,03,12,09,52,4.80
2011,03,12,09,53,4.80
2011,03,12,09,55,1.60
2011,03,12,09,56,1.60
2011,03,12,10,08,3.20
2011,03,12,10,09,4.80
2011,03,12,10,10,3.20
2011,03,12,10,11,3.20
2011,03,12,10,12,3.20
2011,03,12,10,14,1.60
2011,03,12,10,15,1.60
2011,03,12,10,16,1.60
2011,03,12,10,17,1.60
2011,03,12,10,18,1.60
2011,03,12,10,19,1.60
2011,03,12,10,23,1.60
2011,03,12,10,24,1.60
2011,03,12,10,25,1.60
2011,03,12,10,26,3.20
2011,03,12,10,27,4.80
2011,03,12,10,28,4.80
2011,03,12,10,29,6.40
2011,03,12,10,30,6.40
2011,03,12,10,31,4.80
2011,03,12,10,32,4.80
2011,03,12,10,33,4.80
2011,03,12,10,34,4.80
2011,03,12,10,35,3.20
2011,03,12,10,36,3.20
2011,03,12,10,37,4.80
2011,03,12,10,38,4.80
2011,03,12,10,39,4.80
2011,03,12,10,40,6.40
2011,03,12,10,41,3.20
2011,03,12,10,42,3.20
2011,03,12,10,43,4.80
2011,03,12,10,44,4.80
2011,03,12,10,45,3.20
2011,03,12,10,46,6.40
2011,03,12,10,47,4.80
2011,03,12,10,48,4.80
2011,03,12,10,49,6.40
2011,03,12,10,50,3.20
2011,03,12,10,51,1.60
2011,03,12,10,52,3.20
2011,03,12,10,53,3.20
2011,03,12,10,54,3.20
2011,03,12,10,55,1.60
2011,03,12,10,56,4.80
2011,03,12,10,57,4.80
2011,03,12,10,58,1.60
2011,03,12,10,59,4.80
2011,03,12,11,00,6.40
2011,03,12,11,01,4.80
2011,03,12,11,02,4.80
2011,03,12,11,03,4.80
2011,03,12,11,04,4.80
2011,03,12,11,05,3.20
2011,03,12,11,06,3.20
2011,03,12,11,07,4.80
2011,03,12,11,08,4.80
2011,03,12,11,09,1.60
2011,03,12,11,10,3.20
2011,03,12,11,11,4.80
2011,03,12,11,12,6.40
2011,03,12,11,13,4.80
2011,03,12,11,14,3.20
2011,03,12,11,15,3.20
2011,03,12,11,16,4.80
2011,03,12,11,17,6.40
2011,03,12,11,18,4.80
2011,03,12,11,19,4.80
2011,03,12,11,20,4.80
2011,03,12,11,21,4.80
2011,03,12,11,22,1.60
2011,03,12,11,23,1.60
2011,03,12,11,25,4.80
2011,03,12,11,26,4.80
2011,03,12,11,27,3.20
2011,03,12,11,28,4.80
2011,03,12,11,29,4.80
2011,03,12,11,30,1.60
2011,03,12,11,35,1.60
2011,03,12,11,36,3.20
2011,03,12,11,37,1.60
2011,03,12,11,42,1.60
2011,03,12,11,46,1.60
2011,03,12,11,47,1.60
2011,03,12,11,48,1.60
2011,03,12,11,50,3.20
2011,03,12,11,51,3.20
2011,03,12,11,52,3.20
2011,03,12,11,53,4.80
2011,03,12,11,54,4.80
2011,03,12,11,55,6.40
2011,03,12,11,56,4.80
2011,03,12,11,57,6.40
2011,03,12,11,58,3.20
2011,03,12,11,59,6.40
2011,03,12,12,00,4.80
2011,03,12,12,01,1.60
2011,03,12,12,02,6.40
2011,03,12,12,03,4.80
2011,03,12,12,04,3.20
2011,03,12,12,05,4.80
2011,03,12,12,06,6.40
2011,03,12,12,07,3.20
2011,03,12,12,08,6.40
2011,03,12,12,09,3.20
2011,03,12,12,10,4.80
2011,03,12,12,11,1.60
2011,03,12,12,12,4.80
2011,03,12,12,13,4.80
2011,03,12,12,14,3.20
2011,03,12,12,15,3.20
2011,03,12,12,16,4.80
2011,03,12,12,17,1.60
2011,03,12,12,18,6.40
2011,03,12,12,19,4.80
2011,03,12,12,20,4.80
2011,03,12,12,21,3.20
2011,03,12,12,22,4.80
2011,03,12,12,23,8.10
2011,03,12,12,24,6.40
2011,03,12,12,25,6.40
2011,03,12,12,26,6.40
2011,03,12,12,27,4.80
2011,03,12,12,28,4.80
2011,03,12,12,30,1.60
2011,03,12,12,32,3.20
2011,03,12,12,33,3.20
2011,03,12,12,34,3.20
2011,03,12,12,35,3.20
2011,03,12,12,36,3.20
2011,03,12,12,37,4.80
2011,03,12,12,38,4.80
2011,03,12,12,39,4.80
2011,03,12,12,40,3.20
2011,03,12,12,41,4.80
2011,03,12,12,42,4.80
2011,03,12,12,43,1.60
2011,03,12,12,44,3.20
2011,03,12,12,45,1.60
2011,03,12,12,46,8.10
2011,03,12,12,48,1.60
2011,03,12,12,50,6.40
2011,03,12,12,51,4.80
2011,03,12,12,52,3.20
2011,03,12,12,53,1.60
2011,03,12,12,54,3.20
2011,03,12,12,55,6.40
2011,03,12,12,56,6.40
2011,03,12,12,57,4.80
2011,03,12,12,58,4.80
2011,03,12,12,59,6.40
2011,03,12,13,00,1.60
2011,03,12,13,01,6.40
2011,03,12,13,02,3.20
2011,03,12,13,03,3.20
2011,03,12,13,04,4.80
2011,03,12,13,06,1.60
2011,03,12,13,07,1.60
2011,03,12,13,09,1.60
2011,03,12,13,10,3.20
2011,03,12,13,11,4.80
2011,03,12,13,12,3.20
2011,03,12,13,13,3.20
2011,03,12,13,16,3.20
2011,03,12,13,17,3.20
2011,03,12,13,18,4.80
2011,03,12,13,19,6.40
2011,03,12,13,20,1.60
2011,03,12,13,21,1.60
2011,03,12,13,22,3.20
2011,03,12,13,23,1.60
2011,03,12,13,24,1.60
2011,03,12,13,25,1.60
2011,03,12,13,26,3.20
2011,03,12,13,27,3.20
2011,03,12,13,28,4.80
2011,03,12,13,29,4.80
2011,03,12,13,30,3.20
2011,03,12,13,31,4.80
2011,03,12,13,32,3.20
2011,03,12,13,33,6.40
2011,03,12,13,34,6.40
2011,03,12,13,35,8.10
2011,03,12,13,36,6.40
2011,03,12,13,37,9.60
2011,03,12,13,38,6.40
2011,03,12,13,39,8.10
2011,03,12,13,40,4.80
2011,03,12,13,41,3.20
2011,03,12,13,42,6.40
2011,03,12,13,43,6.40
2011,03,12,13,44,6.40
2011,03,12,13,45,4.80
2011,03,12,13,46,4.80
2011,03,12,13,47,6.40
2011,03,12,13,48,3.20
2011,03,12,13,49,3.20
2011,03,12,13,50,4.80
2011,03,12,13,51,4.80
2011,03,12,13,52,4.80
2011,03,12,13,53,4.80
2011,03,12,13,54,4.80
2011,03,12,13,55,1.60
2011,03,12,13,56,3.20
2011,03,12,13,57,1.60
2011,03,12,13,58,4.80
2011,03,12,14,00,3.20
2011,03,12,14,01,6.40
2011,03,12,14,02,3.20
2011,03,12,14,03,4.80
2011,03,12,14,04,6.40
2011,03,12,14,05,1.60
2011,03,12,14,06,1.60
2011,03,12,14,07,3.20
2011,03,12,14,08,1.60
2011,03,12,14,09,1.60
2011,03,12,14,10,4.80
2011,03,12,14,11,9.60
2011,03,12,14,12,8.10
2011,03,12,14,13,11.30
2011,03,12,14,14,11.30
2011,03,12,14,15,16.10
2011,03,12,14,16,16.10
2011,03,12,14,17,17.70
2011,03,12,14,18,11.30
2011,03,12,14,19,11.30
2011,03,12,14,20,11.30
2011,03,12,14,21,9.60
2011,03,12,14,22,9.60
2011,03,12,14,23,9.60
2011,03,12,14,24,8.10
2011,03,12,14,25,9.60
2011,03,12,14,26,8.10
2011,03,12,14,27,4.80
2011,03,12,14,28,6.40
2011,03,12,14,29,6.40
2011,03,12,14,30,6.40
2011,03,12,14,31,8.10
2011,03,12,14,32,6.40
2011,03,12,14,33,9.60
2011,03,12,14,34,4.80
2011,03,12,14,35,4.80
2011,03,12,14,36,4.80
2011,03,12,14,37,3.20
2011,03,12,14,38,6.40
2011,03,12,14,39,3.20
2011,03,12,14,40,4.80
2011,03,12,14,41,6.40
2011,03,12,14,42,4.80
2011,03,12,14,43,4.80
2011,03,12,14,44,8.10
2011,03,12,14,45,9.60
2011,03,12,14,46,9.60
2011,03,12,14,47,4.80
2011,03,12,14,48,9.60
2011,03,12,14,49,8.10
2011,03,12,14,50,8.10
2011,03,12,14,51,6.40
2011,03,12,14,52,8.10
2011,03,12,14,53,4.80
2011,03,12,14,54,3.20
2011,03,12,14,55,4.80
2011,03,12,14,56,8.10
2011,03,12,14,57,8.10
2011,03,12,14,58,6.40
2011,03,12,14,59,8.10
2011,03,12,15,00,4.80
2011,03,12,15,01,4.80
2011,03,12,15,02,4.80
2011,03,12,15,03,4.80
2011,03,12,15,04,4.80
2011,03,12,15,05,4.80
2011,03,12,15,06,6.40
2011,03,12,15,07,4.80
2011,03,12,15,08,4.80
2011,03,12,15,09,6.40
2011,03,12,15,10,6.40
2011,03,12,15,12,1.60
2011,03,12,15,13,1.60
2011,03,12,15,14,3.20
2011,03,12,15,15,6.40
2011,03,12,15,16,4.80
2011,03,12,15,17,3.20
2011,03,12,15,18,1.60
2011,03,12,15,19,3.20
2011,03,12,15,20,4.80
2011,03,12,15,21,3.20
2011,03,12,15,22,3.20
2011,03,12,15,23,3.20
2011,03,12,15,24,4.80
2011,03,12,15,25,4.80
2011,03,12,15,26,4.80
2011,03,12,15,27,6.40
2011,03,12,15,28,4.80
2011,03,12,15,29,4.80
2011,03,12,15,30,6.40
2011,03,12,15,31,6.40
2011,03,12,15,32,4.80
2011,03,12,15,33,3.20
2011,03,12,15,34,4.80
2011,03,12,15,35,4.80
2011,03,12,15,36,4.80
2011,03,12,15,37,3.20
2011,03,12,15,38,3.20
2011,03,12,15,39,1.60
2011,03,12,15,40,4.80
2011,03,12,15,41,6.40
2011,03,12,15,42,4.80
2011,03,12,15,43,3.20
2011,03,12,15,44,6.40
2011,03,12,15,45,3.20
2011,03,12,15,46,4.80
2011,03,12,15,47,4.80
2011,03,12,15,49,3.20
2011,03,12,15,51,1.60
2011,03,12,15,52,1.60
2011,03,12,15,53,4.80
2011,03,12,15,54,4.80
2011,03,12,15,55,3.20
2011,03,12,15,56,6.40
2011,03,12,15,57,6.40
2011,03,12,15,58,4.80
2011,03,12,15,59,6.40
2011,03,12,16,00,6.40
2011,03,12,16,01,6.40
2011,03,12,16,02,4.80
2011,03,12,16,03,6.40
2011,03,12,16,04,3.20
2011,03,12,16,05,3.20
2011,03,12,16,06,3.20
2011,03,12,16,07,4.80
2011,03,12,16,08,4.80
2011,03,12,16,09,6.40
2011,03,12,16,10,6.40
2011,03,12,16,11,4.80
2011,03,12,16,12,4.80
2011,03,12,16,13,4.80
2011,03,12,16,14,3.20
2011,03,12,16,15,1.60
2011,03,12,16,16,3.20
2011,03,12,16,17,6.40
2011,03,12,16,18,3.20
2011,03,12,16,19,4.80
2011,03,12,16,20,8.10
2011,03,12,16,21,6.40
2011,03,12,16,22,1.60
2011,03,12,16,23,1.60
2011,03,12,16,24,6.40
2011,03,12,16,25,6.40
2011,03,12,16,26,4.80
2011,03,12,16,27,3.20
2011,03,12,16,28,4.80
2011,03,12,16,29,4.80
2011,03,12,16,30,6.40
2011,03,12,16,31,3.20
2011,03,12,16,33,1.60
2011,03,12,16,34,3.20
2011,03,12,16,36,3.20
2011,03,12,16,37,4.80
2011,03,12,16,38,3.20
2011,03,12,16,39,4.80
2011,03,12,16,40,1.60
2011,03,12,16,43,3.20
2011,03,12,16,44,4.80
2011,03,12,16,45,6.40
2011,03,12,16,46,9.60
2011,03,12,16,47,8.10
2011,03,12,16,48,6.40
2011,03,12,16,49,8.10
2011,03,12,16,50,3.20
2011,03,12,16,51,6.40
2011,03,12,16,52,4.80
2011,03,12,16,53,4.80
2011,03,12,16,54,6.40
2011,03,12,16,55,8.10
2011,03,12,16,56,6.40
2011,03,12,16,57,6.40
2011,03,12,16,58,4.80
2011,03,12,16,59,3.20
2011,03,12,17,00,8.10
2011,03,12,17,01,3.20
2011,03,12,17,02,6.40
2011,03,12,17,03,9.60
2011,03,12,17,04,6.40
2011,03,12,17,05,1.60
2011,03,12,17,06,6.40
2011,03,12,17,07,8.10
2011,03,12,17,08,6.40
2011,03,12,17,09,4.80
2011,03,12,17,10,6.40
2011,03,12,17,11,6.40
2011,03,12,17,12,6.40
2011,03,12,17,13,4.80
2011,03,12,17,14,6.40
2011,03,12,17,15,6.40
2011,03,12,17,16,4.80
2011,03,12,17,17,8.10
2011,03,12,17,18,1.60
2011,03,12,17,19,4.80
2011,03,12,17,20,8.10
2011,03,12,17,21,6.40
2011,03,12,17,22,6.40
2011,03,12,17,23,3.20
2011,03,12,17,24,4.80
2011,03,12,17,25,1.60
2011,03,12,17,26,6.40
2011,03,12,17,27,6.40
2011,03,12,17,28,6.40
2011,03,12,17,29,3.20
2011,03,12,17,30,1.60
2011,03,12,17,31,1.60
2011,03,12,17,33,3.20
2011,03,12,17,34,1.60
2011,03,12,17,37,1.60
2011,03,12,17,38,1.60
2011,03,12,17,39,3.20
2011,03,12,17,40,3.20
2011,03,12,17,41,3.20
2011,03,12,17,44,1.60
2011,03,12,17,46,1.60
2011,03,12,17,47,1.60
2011,03,12,17,48,3.20
2011,03,12,17,49,3.20
2011,03,12,17,51,1.60
2011,03,12,17,52,4.80
2011,03,12,17,53,4.80
2011,03,12,17,54,3.20
2011,03,12,17,55,3.20
2011,03,12,17,57,3.20
2011,03,12,17,59,3.20
2011,03,12,18,00,1.60
2011,03,12,18,02,1.60
2011,03,12,18,03,3.20
2011,03,12,18,04,3.20
2011,03,12,18,05,4.80
2011,03,12,18,06,4.80
2011,03,12,18,07,4.80
2011,03,12,18,08,4.80
2011,03,12,18,09,4.80
2011,03,12,18,10,4.80
2011,03,12,18,11,3.20
2011,03,12,18,12,1.60
2011,03,12,18,13,3.20
2011,03,12,18,14,3.20
2011,03,12,18,15,1.60
2011,03,12,18,16,4.80
2011,03,12,18,17,4.80
2011,03,12,18,18,4.80
2011,03,12,18,19,6.40
2011,03,12,18,20,3.20
2011,03,12,18,21,3.20
2011,03,12,18,22,4.80
2011,03,12,18,23,4.80
2011,03,12,18,24,4.80
2011,03,12,18,25,4.80
2011,03,12,18,26,4.80
2011,03,12,18,27,3.20
2011,03,12,18,28,4.80
2011,03,12,18,29,3.20
2011,03,12,18,30,4.80
2011,03,12,18,31,8.10
2011,03,12,18,32,6.40
2011,03,12,18,33,4.80
2011,03,12,18,34,3.20
2011,03,12,18,35,4.80
2011,03,12,18,36,6.40
2011,03,12,18,37,6.40
2011,03,12,18,38,6.40